Location: ??
(35.5052°N, 139.7262°E)
Time: 08:35:24
(UTC+00:00)

OAO 1 - Pass Details

Date: 27 October 2021
Orbit: 773 x 784 km, 35.0° (Epoch: 28 November)

Event Time Altitude Azimuth Distance (km) Brightness Sun altitude
Rises 09:50:41 0° 275° (W) 3,248 9.1 -24.8°
Reaches altitude 10° 09:53:09 10° 274° (W) 2,322 8.0 -25.3°
Maximum altitude 09:58:39 81° 188° (S) 790 4.4 -26.4°
Enters shadow 09:58:48 80° 159° (SSE) 792 4.4 -26.5°
